Home > Products > State Listing > Puerto Rico Data
Latest:
 RWRPR |
  [top]

000
ASCA42 TJSJ 041710
RWRPR
PUERTO RICO/U.S. VIRGIN ISLANDS HOURLY WEATHER ROUNDUP
NATIONAL WEATHER SERVICE SAN JUAN PR
100 PM AST WED MAY 04 2016

PRZ001-004-041800-
PUERTO RICO

CITY           SKY/WX    TMP DP  RH WIND       PRES   REMARKS
SAN JUAN LMM   MOSUNNY   82  73  74 NE14      29.97F
AGUADILLA      LGT RAIN  81  73  78 E10       29.99F
CEIBA          RAIN      77  72  83 VRB5      30.01F
$$

PRZ006-007-041800-
U.S. VIRGIN ISLANDS

CITY           SKY/WX    TMP DP  RH WIND       PRES   REMARKS
CHARLOTTE AMA  SUNNY     86  75  70 SE13      29.99F HX  95
CHRISTIANSTED  MOSUNNY   86  73  66 E15       30.00F HX  93
$$

HOURLY WEATHER ROUNDUP FOR THE NEWS MEDIA

CITY           SKY/WX    TMP DP  RH WIND       PRES   REMARKS
ORLANDO        LGT RAIN  72  66  81 S13       29.80F
NEW YORK       CLOUDY    53  47  79 E13       29.77F
NEWARK         DRIZZLE   54  49  83 NE9       29.77S
CHICAGO        CLOUDY    50  37  61 NW17      29.78R
HARTFORD       CLOUDY    52  42  69 NE20G25   29.83F
BOSTON         CLOUDY    48  42  80 E13       29.90S
DALLAS         SUNNY     77  51  40 NW20G26   30.06S
PHILADELPHIA   CLOUDY    53  47  79 E13       29.74S
LOS ANGELES    CLOUDY    58  54  86 W6        29.97S
WASHINGTON DC  CLOUDY    58  53  84 SE3       29.69F




000
ASCA42 TJSJ 041610
RWRPR
PUERTO RICO/U.S. VIRGIN ISLANDS HOURLY WEATHER ROUNDUP
NATIONAL WEATHER SERVICE SAN JUAN PR
1200 PM AST WED MAY 04 2016

PRZ001-004-041700-
PUERTO RICO

CITY           SKY/WX    TMP DP  RH WIND       PRES   REMARKS
SAN JUAN LMM   MOSUNNY   84  75  74 NE9       29.98F HX  92
AGUADILLA      MOSUNNY   82  73  74 N5        30.00F
CEIBA          PTSUNNY   84  73  70 E14       30.03F HX  91
$$

PRZ006-007-041700-
U.S. VIRGIN ISLANDS

CITY           SKY/WX    TMP DP  RH WIND       PRES   REMARKS
CHARLOTTE AMA  MOSUNNY   86  75  70 SE13      30.01F HX  95
CHRISTIANSTED  MOSUNNY   86  73  66 E17       30.01F HX  93
$$

HOURLY WEATHER ROUNDUP FOR THE NEWS MEDIA

CITY           SKY/WX    TMP DP  RH WIND       PRES   REMARKS
ORLANDO        CLOUDY    72  67  84 S15       29.83F
NEW YORK       CLOUDY    53  46  77 E16       29.79F
NEWARK         CLOUDY    58  46  64 E10       29.77F
CHICAGO        PTSUNNY   49  38  65 NW17G25   29.77R
HARTFORD       CLOUDY    51  42  71 E14       29.85S
BOSTON         CLOUDY    48  43  82 E13       29.90F
DALLAS         SUNNY     73  54  51 NW13      30.06F
PHILADELPHIA   CLOUDY    54  47  77 E12       29.74F
LOS ANGELES    CLOUDY    59  54  83 W7        29.97S FOG
WASHINGTON DC  CLOUDY    56  52  86 E5        29.72S




000
ASCA42 TJSJ 041510
RWRPR
PUERTO RICO/U.S. VIRGIN ISLANDS HOURLY WEATHER ROUNDUP
NATIONAL WEATHER SERVICE SAN JUAN PR
1100 AM AST WED MAY 04 2016

PRZ001-004-041600-
PUERTO RICO

CITY           SKY/WX    TMP DP  RH WIND       PRES   REMARKS
SAN JUAN LMM   LGT RAIN  84  70  61 VRB3      30.01S
AGUADILLA      PTSUNNY   82  73  74 NE8       30.02S
CEIBA          PTSUNNY   84  73  70 E14       30.04F HX  91
$$

PRZ006-007-041600-
U.S. VIRGIN ISLANDS

CITY           SKY/WX    TMP DP  RH WIND       PRES   REMARKS
CHARLOTTE AMA  SUNNY     86  75  70 E14       30.02S HX  95
CHRISTIANSTED  MOSUNNY   84  73  70 E14       30.03S HX  91
$$

HOURLY WEATHER ROUNDUP FOR THE NEWS MEDIA

CITY           SKY/WX    TMP DP  RH WIND       PRES   REMARKS
ORLANDO        LGT RAIN  72  66  81 S18G24    29.85R
NEW YORK       CLOUDY    52  46  80 E10       29.81S
NEWARK         CLOUDY    54  46  74 NE9       29.79R
CHICAGO        PTSUNNY   50  38  63 N18G24    29.74R
HARTFORD       CLOUDY    51  42  71 E15       29.85R
BOSTON         CLOUDY    48  42  80 E12       29.92R
DALLAS         SUNNY     69  55  60 NW8       30.07F
PHILADELPHIA   CLOUDY    53  47  79 E9        29.76F
LOS ANGELES    CLOUDY    59  54  83 SE3       29.96R FOG
WASHINGTON DC  CLOUDY    55  51  86 E7        29.72F




000
ASCA42 TJSJ 041510
RWRPR
PUERTO RICO/U.S. VIRGIN ISLANDS HOURLY WEATHER ROUNDUP
NATIONAL WEATHER SERVICE SAN JUAN PR
1100 AM AST WED MAY 04 2016

PRZ001-004-041600-
PUERTO RICO

CITY           SKY/WX    TMP DP  RH WIND       PRES   REMARKS
SAN JUAN LMM   LGT RAIN  84  70  61 VRB3      30.01S
AGUADILLA      PTSUNNY   82  73  74 NE8       30.02S
CEIBA          PTSUNNY   84  73  70 E14       30.04F HX  91
$$

PRZ006-007-041600-
U.S. VIRGIN ISLANDS

CITY           SKY/WX    TMP DP  RH WIND       PRES   REMARKS
CHARLOTTE AMA  SUNNY     86  75  70 E14       30.02S HX  95
CHRISTIANSTED  MOSUNNY   84  73  70 E14       30.03S HX  91
$$

HOURLY WEATHER ROUNDUP FOR THE NEWS MEDIA

CITY           SKY/WX    TMP DP  RH WIND       PRES   REMARKS
ORLANDO        LGT RAIN  72  66  81 S18G24    29.85R
NEW YORK       CLOUDY    52  46  80 E10       29.81S
NEWARK         CLOUDY    54  46  74 NE9       29.79R
CHICAGO        PTSUNNY   50  38  63 N18G24    29.74R
HARTFORD       CLOUDY    51  42  71 E15       29.85R
BOSTON         CLOUDY    48  42  80 E12       29.92R
DALLAS         SUNNY     69  55  60 NW8       30.07F
PHILADELPHIA   CLOUDY    53  47  79 E9        29.76F
LOS ANGELES    CLOUDY    59  54  83 SE3       29.96R FOG
WASHINGTON DC  CLOUDY    55  51  86 E7        29.72F




000
ASCA42 TJSJ 041410
RWRPR
PUERTO RICO/U.S. VIRGIN ISLANDS HOURLY WEATHER ROUNDUP
NATIONAL WEATHER SERVICE SAN JUAN PR
1000 AM AST WED MAY 04 2016

PRZ001-004-041500-
PUERTO RICO

CITY           SKY/WX    TMP DP  RH WIND       PRES   REMARKS
SAN JUAN LMM   MOSUNNY   84  72  65 E7        30.01S
PONCE          MOSUNNY   86  75  70 E12       30.00  HX  95
AGUADILLA      SUNNY     82  73  74 NE8       30.02S
CEIBA          PTSUNNY   84  73  70 E12       30.05R HX  91
$$

PRZ006-007-041500-
U.S. VIRGIN ISLANDS

CITY           SKY/WX    TMP DP  RH WIND       PRES   REMARKS
CHARLOTTE AMA  MOSUNNY   84  73  70 SE14      30.02R HX  91
CHRISTIANSTED  MOSUNNY   84  73  70 E15       30.03S HX  91
$$

HOURLY WEATHER ROUNDUP FOR THE NEWS MEDIA

CITY           SKY/WX    TMP DP  RH WIND       PRES   REMARKS
ORLANDO        CLOUDY    72  66  81 S14       29.84R
NEW YORK       CLOUDY    52  45  77 E12       29.81R
NEWARK         CLOUDY    54  46  74 E10       29.78F
CHICAGO        PTSUNNY   49  39  68 N16       29.72S
HARTFORD       CLOUDY    50  42  74 E13G23    29.84R
BOSTON         CLOUDY    49  45  86 NE12      29.89R
DALLAS         SUNNY     64  55  72 W12G17    30.08S
PHILADELPHIA   CLOUDY    53  47  79 E13       29.77S
LOS ANGELES    CLOUDY    58  54  86 CALM      29.94S FOG
WASHINGTON DC  CLOUDY    55  51  86 E7        29.73R




000
ASCA42 TJSJ 041310
RWRPR
PUERTO RICO/U.S. VIRGIN ISLANDS HOURLY WEATHER ROUNDUP
NATIONAL WEATHER SERVICE SAN JUAN PR
900 AM AST WED MAY 04 2016

PRZ001-004-041400-
PUERTO RICO

CITY           SKY/WX    TMP DP  RH WIND       PRES   REMARKS
SAN JUAN LMM   MOSUNNY   82  73  74 SE7       30.01S
AGUADILLA      SUNNY     81  70  69 SE5       30.02S
CEIBA          MOSUNNY   82  73  74 E12       30.04S
$$

PRZ006-007-041400-
U.S. VIRGIN ISLANDS

CITY           SKY/WX    TMP DP  RH WIND       PRES   REMARKS
CHARLOTTE AMA  MOSUNNY   82  73  74 E14       30.01F
CHRISTIANSTED  MOSUNNY   84  73  70 MISG      30.03R HX  91
$$

HOURLY WEATHER ROUNDUP FOR THE NEWS MEDIA

CITY           SKY/WX    TMP DP  RH WIND       PRES   REMARKS
ORLANDO        PTSUNNY   71  66  84 S7        29.82F
NEW YORK       CLOUDY    51  45  79 NE13      29.80F
NEWARK         CLOUDY    53  46  77 NE7       29.79F
CHICAGO        CLOUDY    48  42  80 N14       29.72R
HARTFORD       CLOUDY    49  44  83 E10       29.84F
BOSTON         CLOUDY    47  43  86 E12       29.89F
DALLAS         SUNNY     61  54  77 W7        30.08R
PHILADELPHIA   CLOUDY    52  47  83 E10       29.77S
LOS ANGELES    CLOUDY    58  54  86 SW6       29.94R FOG
WASHINGTON DC  CLOUDY    54  52  93 E7        29.72F FOG




000
ASCA42 TJSJ 041210
RWRPR
PUERTO RICO/U.S. VIRGIN ISLANDS HOURLY WEATHER ROUNDUP
NATIONAL WEATHER SERVICE SAN JUAN PR
800 AM AST WED MAY 04 2016

PRZ001-004-041300-
PUERTO RICO

CITY           SKY/WX    TMP DP  RH WIND       PRES   REMARKS
SAN JUAN LMM   MOSUNNY   81  73  78 SE6       30.01R
PONCE          LGT RAIN  79  75  89 SE8       29.99S
AGUADILLA      SUNNY     77  72  83 E3        30.02R
CEIBA          MOSUNNY   81  72  74 SE12      30.04R
$$

PRZ006-007-041300-
U.S. VIRGIN ISLANDS

CITY           SKY/WX    TMP DP  RH WIND       PRES   REMARKS
CHARLOTTE AMA  MOSUNNY   82  73  74 E14       30.02R
CHRISTIANSTED  MOSUNNY   82  72  69 E13       30.01R
$$

HOURLY WEATHER ROUNDUP FOR THE NEWS MEDIA

CITY           SKY/WX    TMP DP  RH WIND       PRES   REMARKS
ORLANDO        LGT RAIN  70  64  81 S9        29.84R
NEW YORK       CLOUDY    50  46  86 NE8       29.82S
NEWARK         LGT RAIN  51  47  87 E9        29.81S
CHICAGO        MOSUNNY   46  40  79 N12       29.70R
HARTFORD       CLOUDY    47  43  86 NE8       29.86R
BOSTON         CLOUDY    46  43  89 E10       29.90S
DALLAS         CLEAR     57  54  89 NW3       30.06R
PHILADELPHIA   CLOUDY    52  47  83 E9        29.77F
LOS ANGELES    CLOUDY    58  54  86 W3        29.93S
WASHINGTON DC  FOG       54  53  97 NE5       29.73S VSB 1




000
ASCA42 TJSJ 041210
RWRPR
PUERTO RICO/U.S. VIRGIN ISLANDS HOURLY WEATHER ROUNDUP
NATIONAL WEATHER SERVICE SAN JUAN PR
800 AM AST WED MAY 04 2016

PRZ001-004-041300-
PUERTO RICO

CITY           SKY/WX    TMP DP  RH WIND       PRES   REMARKS
SAN JUAN LMM   MOSUNNY   81  73  78 SE6       30.01R
PONCE          LGT RAIN  79  75  89 SE8       29.99S
AGUADILLA      SUNNY     77  72  83 E3        30.02R
CEIBA          MOSUNNY   81  72  74 SE12      30.04R
$$

PRZ006-007-041300-
U.S. VIRGIN ISLANDS

CITY           SKY/WX    TMP DP  RH WIND       PRES   REMARKS
CHARLOTTE AMA  MOSUNNY   82  73  74 E14       30.02R
CHRISTIANSTED  MOSUNNY   82  72  69 E13       30.01R
$$

HOURLY WEATHER ROUNDUP FOR THE NEWS MEDIA

CITY           SKY/WX    TMP DP  RH WIND       PRES   REMARKS
ORLANDO        LGT RAIN  70  64  81 S9        29.84R
NEW YORK       CLOUDY    50  46  86 NE8       29.82S
NEWARK         LGT RAIN  51  47  87 E9        29.81S
CHICAGO        MOSUNNY   46  40  79 N12       29.70R
HARTFORD       CLOUDY    47  43  86 NE8       29.86R
BOSTON         CLOUDY    46  43  89 E10       29.90S
DALLAS         CLEAR     57  54  89 NW3       30.06R
PHILADELPHIA   CLOUDY    52  47  83 E9        29.77F
LOS ANGELES    CLOUDY    58  54  86 W3        29.93S
WASHINGTON DC  FOG       54  53  97 NE5       29.73S VSB 1




000
ASCA42 TJSJ 041110
RWRPR
PUERTO RICO/U.S. VIRGIN ISLANDS HOURLY WEATHER ROUNDUP
NATIONAL WEATHER SERVICE SAN JUAN PR
700 AM AST WED MAY 04 2016

PRZ001-004-041200-
PUERTO RICO

CITY           SKY/WX    TMP DP  RH WIND       PRES   REMARKS
SAN JUAN LMM   MOSUNNY   77  73  88 SE3       30.00R
PONCE          PTSUNNY   73  72  94 SE9       29.99R
AGUADILLA      SUNNY     72  68  88 SE3       30.00
CEIBA          MOSUNNY   81  73  78 E9        30.03R
$$

PRZ006-007-041200-
U.S. VIRGIN ISLANDS

CITY           SKY/WX    TMP DP  RH WIND       PRES   REMARKS
CHARLOTTE AMA  SUNNY     81  73  78 E8        30.00R
CHRISTIANSTED  MOSUNNY   79  73  83 E10       30.00R
$$

HOURLY WEATHER ROUNDUP FOR THE NEWS MEDIA

CITY           SKY/WX    TMP DP  RH WIND       PRES   REMARKS
ORLANDO        TSTM      74  64  71 SW6G18    29.81F
NEW YORK       LGT RAIN  49  46  90 NE9       29.82S
NEWARK         LGT RAIN  51  47  86 E7        29.81R
CHICAGO        LGT RAIN  45  40  82 N21G32    29.67R
HARTFORD       CLOUDY    46  43  89 NE7       29.85R
BOSTON         CLOUDY    46  42  86 E8        29.89R
DALLAS         CLEAR     57  52  83 CALM      30.05S
PHILADELPHIA   CLOUDY    51  47  86 E12       29.78R
LOS ANGELES    MOCLDY    57  54  89 N3        29.93F
WASHINGTON DC  CLOUDY    55  53  93 E5        29.73R FOG




000
ASCA42 TJSJ 041010
RWRPR
PUERTO RICO/U.S. VIRGIN ISLANDS HOURLY WEATHER ROUNDUP
NATIONAL WEATHER SERVICE SAN JUAN PR
600 AM AST WED MAY 04 2016

PRZ001-004-041100-
PUERTO RICO

CITY           SKY/WX    TMP DP  RH WIND       PRES   REMARKS
SAN JUAN LMM   PTCLDY    77  73  88 CALM      29.98R
PONCE          MOCLDY    73  72  94 CALM      29.94
CEIBA          PTCLDY    79  72  78 E6        30.01R
$$

PRZ006-007-041100-
U.S. VIRGIN ISLANDS

CITY           SKY/WX    TMP DP  RH WIND       PRES   REMARKS
CHARLOTTE AMA  CLEAR     79  72  78 E8        29.98R
CHRISTIANSTED  PTCLDY    79  73  83 NE6       29.99R
$$

HOURLY WEATHER ROUNDUP FOR THE NEWS MEDIA

CITY           SKY/WX    TMP DP  RH WIND       PRES   REMARKS
ORLANDO        CLOUDY    77  72  84 SW7       29.82R
NEW YORK       CLOUDY    50  45  83 NE7       29.82R
NEWARK         LGT RAIN  51  47  84 NE6       29.80S
CHICAGO        LGT RAIN  49  47  93 NE9       29.65R
HARTFORD       CLOUDY    45  43  93 NE8       29.83F
BOSTON         MOCLDY    46  42  86 E9        29.87S
DALLAS         CLEAR     58  53  84 CALM      30.05S
PHILADELPHIA   CLOUDY    51  47  86 NE8       29.77F
LOS ANGELES    MOCLDY    57  54  89 W3        29.95F
WASHINGTON DC  CLOUDY    55  53  93 E6        29.73F




000
ASCA42 TJSJ 040910
RWRPR
PUERTO RICO/U.S. VIRGIN ISLANDS HOURLY WEATHER ROUNDUP
NATIONAL WEATHER SERVICE SAN JUAN PR
500 AM AST WED MAY 04 2016

PRZ001-004-041000-
PUERTO RICO

CITY           SKY/WX    TMP DP  RH WIND       PRES   REMARKS
SAN JUAN LMM   PTCLDY    75  72  88 CALM      29.97R
CEIBA          PTCLDY    79  72  78 E8        29.99S
$$

PRZ006-007-041000-
U.S. VIRGIN ISLANDS

CITY           SKY/WX    TMP DP  RH WIND       PRES   REMARKS
CHARLOTTE AMA  CLEAR     79  72  78 E9        29.96S
CHRISTIANSTED  CLEAR     79  72  78 NE6       29.98R
$$

HOURLY WEATHER ROUNDUP FOR THE NEWS MEDIA

CITY           SKY/WX    TMP DP  RH WIND       PRES   REMARKS
ORLANDO        CLOUDY    76  72  87 SW5       29.81F
NEW YORK       CLOUDY    50  46  86 NE7       29.81F
NEWARK         CLOUDY    49  47  92 E5        29.80S
CHICAGO        CLOUDY    49  47  93 NW6       29.62S
HARTFORD       CLOUDY    45  43  93 NE5       29.84R
BOSTON         CLOUDY    45  42  89 NE7       29.87R
DALLAS         CLEAR     58  53  84 N3        30.05S
PHILADELPHIA   LGT RAIN  51  47  86 NE5       29.79S
LOS ANGELES    MOCLDY    57  53  86 CALM      29.96F
WASHINGTON DC  CLOUDY    55  53  93 CALM      29.74S




000
ASCA42 TJSJ 040910
RWRPR
PUERTO RICO/U.S. VIRGIN ISLANDS HOURLY WEATHER ROUNDUP
NATIONAL WEATHER SERVICE SAN JUAN PR
500 AM AST WED MAY 04 2016

PRZ001-004-041000-
PUERTO RICO

CITY           SKY/WX    TMP DP  RH WIND       PRES   REMARKS
SAN JUAN LMM   PTCLDY    75  72  88 CALM      29.97R
CEIBA          PTCLDY    79  72  78 E8        29.99S
$$

PRZ006-007-041000-
U.S. VIRGIN ISLANDS

CITY           SKY/WX    TMP DP  RH WIND       PRES   REMARKS
CHARLOTTE AMA  CLEAR     79  72  78 E9        29.96S
CHRISTIANSTED  CLEAR     79  72  78 NE6       29.98R
$$

HOURLY WEATHER ROUNDUP FOR THE NEWS MEDIA

CITY           SKY/WX    TMP DP  RH WIND       PRES   REMARKS
ORLANDO        CLOUDY    76  72  87 SW5       29.81F
NEW YORK       CLOUDY    50  46  86 NE7       29.81F
NEWARK         CLOUDY    49  47  92 E5        29.80S
CHICAGO        CLOUDY    49  47  93 NW6       29.62S
HARTFORD       CLOUDY    45  43  93 NE5       29.84R
BOSTON         CLOUDY    45  42  89 NE7       29.87R
DALLAS         CLEAR     58  53  84 N3        30.05S
PHILADELPHIA   LGT RAIN  51  47  86 NE5       29.79S
LOS ANGELES    MOCLDY    57  53  86 CALM      29.96F
WASHINGTON DC  CLOUDY    55  53  93 CALM      29.74S




000
ASCA42 TJSJ 040810
RWRPR
PUERTO RICO/U.S. VIRGIN ISLANDS HOURLY WEATHER ROUNDUP
NATIONAL WEATHER SERVICE SAN JUAN PR
400 AM AST WED MAY 04 2016

PRZ001-004-040900-
PUERTO RICO

CITY           SKY/WX    TMP DP  RH WIND       PRES   REMARKS
SAN JUAN LMM   PTCLDY    75  73  94 CALM      29.96F
PONCE          MOCLDY    75  73  94 NE6       29.95
CEIBA          PTCLDY    79  72  78 E6        29.99F
$$

PRZ006-007-040900-
U.S. VIRGIN ISLANDS

CITY           SKY/WX    TMP DP  RH WIND       PRES   REMARKS
CHARLOTTE AMA  CLEAR     79  72  78 E7        29.96F
CHRISTIANSTED  CLEAR     77  72  83 NE5       29.97S
$$

HOURLY WEATHER ROUNDUP FOR THE NEWS MEDIA

CITY           SKY/WX    TMP DP  RH WIND       PRES   REMARKS
ORLANDO        CLEAR     77  72  84 SW6       29.82F
NEW YORK       CLOUDY    50  46  86 E5        29.82S
NEWARK         CLOUDY    50  48  95 E7        29.80S
CHICAGO        RAIN      50  47  89 N7        29.64F FOG
HARTFORD       CLOUDY    45  42  89 NE7       29.83S
BOSTON         CLOUDY    46  42  86 NE7       29.86S
DALLAS         CLEAR     59  53  80 CALM      30.05F
PHILADELPHIA   LGT RAIN  52  47  83 E7        29.79
LOS ANGELES    MOCLDY    57  53  86 W7        29.97R
WASHINGTON DC  CLOUDY    55  53  93 E5        29.74S




000
ASCA42 TJSJ 040710
RWRPR
PUERTO RICO/U.S. VIRGIN ISLANDS HOURLY WEATHER ROUNDUP
NATIONAL WEATHER SERVICE SAN JUAN PR
300 AM AST WED MAY 04 2016

PRZ001-004-040800-
PUERTO RICO

CITY           SKY/WX    TMP DP  RH WIND       PRES   REMARKS
SAN JUAN LMM   PTCLDY    75  73  94 CALM      29.97F
AGUADILLA      PTCLDY    72  70  94 SE3       29.97F
CEIBA          PTCLDY    79  73  83 E3        30.00F
$$

PRZ006-007-040800-
U.S. VIRGIN ISLANDS

CITY           SKY/WX    TMP DP  RH WIND       PRES   REMARKS
CHARLOTTE AMA  CLEAR     79  73  83 E6        29.97F
CHRISTIANSTED  CLEAR     79  73  83 E7        29.97F
$$

HOURLY WEATHER ROUNDUP FOR THE NEWS MEDIA

CITY           SKY/WX    TMP DP  RH WIND       PRES   REMARKS
ORLANDO        CLEAR     77  71  82 SW6       29.84F
NEW YORK       CLOUDY    50  48  93 NE6       29.82S
NEWARK         CLOUDY    49  49  97 SE6       29.80F FOG
CHICAGO        LGT RAIN  51  47  86 NW9       29.66R
HARTFORD       PTCLDY    44  42  93 CALM      29.83S
BOSTON         CLOUDY    45  43  93 NE5       29.86S
DALLAS         PTCLDY    61  51  70 CALM      30.06F
PHILADELPHIA   CLOUDY    52  47  83 E8        29.79F
LOS ANGELES    PTCLDY    58  53  84 NW3       29.96S
WASHINGTON DC  CLOUDY    56  53  90 CALM      29.74F




000
ASCA42 TJSJ 040610
RWRPR
PUERTO RICO/U.S. VIRGIN ISLANDS HOURLY WEATHER ROUNDUP
NATIONAL WEATHER SERVICE SAN JUAN PR
200 AM AST WED MAY 04 2016

PRZ001-004-040700-
PUERTO RICO

CITY           SKY/WX    TMP DP  RH WIND       PRES   REMARKS
SAN JUAN LMM   PTCLDY    77  72  83 SE3       29.99
AGUADILLA      MOCLDY    73  70  88 CALM      30.00F
CEIBA          MOCLDY    79  73  83 NE5       30.01F
$$

PRZ006-007-040700-
U.S. VIRGIN ISLANDS

CITY           SKY/WX    TMP DP  RH WIND       PRES   REMARKS
CHARLOTTE AMA  CLEAR     79  73  83 NE6       29.98F
CHRISTIANSTED  PTCLDY    79  73  83 NE6       29.99F
$$

HOURLY WEATHER ROUNDUP FOR THE NEWS MEDIA

CITY           SKY/WX    TMP DP  RH WIND       PRES   REMARKS
ORLANDO        CLEAR     77  71  82 SW6       29.86F
NEW YORK       DRIZZLE   49  47  93 E10       29.82F FOG
NEWARK         CLOUDY    50  49  95 SE6       29.81F
CHICAGO        CLOUDY    57  42  57 SW15      29.61F
HARTFORD       CLOUDY    46  43  89 N5        29.83F
BOSTON         MOCLDY    45  42  89 NE6       29.86F
DALLAS         PTCLDY    63  50  62 CALM      30.07R
PHILADELPHIA   CLOUDY    52  47  83 E8        29.80F
LOS ANGELES    PTCLDY    58  53  84 NW5       29.96S
WASHINGTON DC  CLOUDY    56  54  93 CALM      29.77F FOG




    US Dept of Commerce
    National Oceanic and Atmospheric Administration
    National Weather Service
    1325 East West Highway
    Silver Spring, MD 20910
    Page Author: NWS Internet Services Team
Disclaimer
Information Quality
Credits
Glossary
Privacy Policy
Freedom of Information Act (FOIA)
About Us
Career Opportunities